Time,TemperatureF,DewpointF,PressureIn,WindDirection,WindDirectionDegrees,WindSpeedMPH,WindSpeedGustMPH,Humidity,HourlyPrecipIn,Conditions,Clouds,dailyrainin,SoftwareType,DateUTC
2013-10-03 00:22:00,70.0,40.0,29.98,North,0,0.0,1.0,33,0.00,,,0.00,,2013-10-03 07:22:00,
2013-10-03 00:52:00,72.0,44.0,29.98,NW,315,0.0,2.0,37,0.00,,,0.00,,2013-10-03 07:52:00,
2013-10-03 01:22:00,72.0,46.0,29.97,North,0,3.0,4.0,40,0.00,,,0.00,,2013-10-03 08:22:00,
2013-10-03 01:52:00,72.0,45.0,29.96,North,0,1.0,3.0,38,0.00,,,0.00,,2013-10-03 08:52:00,
2013-10-03 02:21:00,69.0,42.0,29.97,East,90,2.0,5.0,37,0.00,,,0.00,,2013-10-03 09:21:00,
2013-10-03 02:53:00,69.0,42.0,29.96,ENE,67,3.0,4.0,38,0.00,,,0.00,,2013-10-03 09:53:00,
2013-10-03 03:22:00,70.0,43.0,29.96,ENE,67,2.0,3.0,38,0.00,,,0.00,,2013-10-03 10:22:00,
2013-10-03 03:52:00,68.0,43.0,29.96,ENE,67,3.0,6.0,41,0.00,,,0.00,,2013-10-03 10:52:00,
2013-10-03 04:22:00,67.0,43.0,29.96,East,90,2.0,5.0,42,0.00,,,0.00,,2013-10-03 11:22:00,
2013-10-03 04:52:00,67.0,46.0,29.96,East,90,4.0,6.0,46,0.00,,,0.00,,2013-10-03 11:52:00,
2013-10-03 05:22:00,68.0,48.0,29.96,East,90,3.0,6.0,49,0.00,,,0.00,,2013-10-03 12:22:00,
2013-10-03 05:52:00,67.0,49.0,29.96,ESE,112,2.0,5.0,52,0.00,,,0.00,,2013-10-03 12:52:00,
2013-10-03 06:21:00,68.0,49.0,29.97,East,90,4.0,9.0,51,0.00,,,0.00,,2013-10-03 13:21:00,
2013-10-03 06:52:00,69.0,51.0,29.96,East,90,5.0,9.0,52,0.00,,,0.00,,2013-10-03 13:52:00,
2013-10-03 07:21:00,69.0,51.0,29.97,East,90,3.0,6.0,53,0.00,,,0.00,,2013-10-03 14:21:00,
2013-10-03 07:52:00,71.0,52.0,29.98,ESE,112,3.0,7.0,52,0.00,,,0.00,,2013-10-03 14:52:00,
2013-10-03 08:21:00,73.0,53.0,29.98,ESE,112,4.0,8.0,49,0.00,,,0.00,,2013-10-03 15:21:00,
2013-10-03 08:53:00,74.0,53.0,29.98,ESE,112,3.0,7.0,48,0.00,,,0.00,,2013-10-03 15:53:00,
2013-10-03 09:23:00,76.0,54.0,29.98,ESE,112,4.0,9.0,47,0.00,,,0.00,,2013-10-03 16:23:00,
2013-10-03 09:53:00,77.0,54.0,29.99,SE,135,3.0,6.0,45,0.00,,,0.00,,2013-10-03 16:53:00,
2013-10-03 10:22:00,78.0,54.0,29.98,ESE,112,3.0,10.0,44,0.00,,,0.00,,2013-10-03 17:22:00,
2013-10-03 10:52:00,80.0,53.0,29.97,SSE,157,4.0,8.0,39,0.00,,,0.00,,2013-10-03 17:52:00,
2013-10-03 11:22:00,80.0,51.0,29.96,ESE,112,3.0,8.0,36,0.00,,,0.00,,2013-10-03 18:22:00,
2013-10-03 11:52:00,82.0,51.0,29.95,NNW,337,3.0,7.0,34,0.00,,,0.00,,2013-10-03 18:52:00,
2013-10-03 12:21:00,83.0,50.0,29.93,SSE,157,3.0,7.0,32,0.00,,,0.00,,2013-10-03 19:21:00,
2013-10-03 12:52:00,84.0,49.0,29.92,South,180,3.0,6.0,30,0.00,,,0.00,,2013-10-03 19:52:00,
2013-10-03 13:21:00,84.0,49.0,29.90,ENE,67,4.0,9.0,30,0.00,,,0.00,,2013-10-03 20:21:00,
2013-10-03 13:52:00,85.0,48.0,29.88,SW,225,3.0,10.0,28,0.00,,,0.00,,2013-10-03 20:52:00,
2013-10-03 14:21:00,87.0,48.0,29.86,WSW,247,5.0,9.0,26,0.00,,,0.00,,2013-10-03 21:21:00,
2013-10-03 14:54:00,89.0,44.0,29.85,SW,225,5.0,13.0,21,0.00,,,0.00,,2013-10-03 21:54:00,
2013-10-03 15:23:00,90.0,38.0,29.84,SW,225,6.0,12.0,16,0.00,,,0.00,,2013-10-03 22:23:00,
2013-10-03 15:54:00,89.0,40.0,29.84,WNW,292,6.0,11.0,18,0.00,,,0.00,,2013-10-03 22:54:00,
2013-10-03 16:21:00,89.0,40.0,29.83,SW,225,7.0,13.0,18,0.00,,,0.00,,2013-10-03 23:21:00,
2013-10-03 16:52:00,89.0,38.0,29.82,SW,225,6.0,12.0,17,0.00,,,0.00,,2013-10-03 23:52:00,
2013-10-03 17:21:00,88.0,36.0,29.82,WSW,247,6.0,12.0,16,0.00,,,0.00,,2013-10-04 00:21:00,
2013-10-03 17:52:00,86.0,36.0,29.83,WSW,247,7.0,12.0,17,0.00,,,0.00,,2013-10-04 00:52:00,
2013-10-03 18:21:00,84.0,34.0,29.83,WSW,247,6.0,11.0,17,0.00,,,0.00,,2013-10-04 01:21:00,
2013-10-03 18:52:00,82.0,34.0,29.84,SW,225,4.0,8.0,18,0.00,,,0.00,,2013-10-04 01:52:00,
2013-10-03 19:22:00,80.0,35.0,29.84,WNW,292,1.0,4.0,20,0.00,,,0.00,,2013-10-04 02:22:00,
2013-10-03 19:52:00,78.0,35.0,29.85,NW,315,1.0,3.0,21,0.00,,,0.00,,2013-10-04 02:52:00,
2013-10-03 20:22:00,78.0,36.0,29.86,NW,315,2.0,6.0,22,0.00,,,0.00,,2013-10-04 03:22:00,
2013-10-03 20:56:00,78.0,41.0,29.88,NW,315,5.0,9.0,27,0.00,,,0.00,,2013-10-04 03:56:00,
2013-10-03 21:56:00,76.0,40.0,29.88,NNW,337,4.0,7.0,27,0.00,,,0.00,,2013-10-04 04:56:00,
2013-10-03 22:25:00,76.0,40.0,29.90,NNW,337,3.0,7.0,27,0.00,,,0.00,,2013-10-04 05:25:00,
2013-10-03 22:54:00,76.0,39.0,29.90,NNW,337,3.0,6.0,26,0.00,,,0.00,,2013-10-04 05:54:00,
2013-10-03 23:24:00,75.0,40.0,29.91,NW,315,1.0,2.0,28,0.00,,,0.00,,2013-10-04 06:24:00,
2013-10-03 23:54:00,71.0,40.0,29.91,North,0,1.0,3.0,32,0.00,,,0.00,,2013-10-04 06:54:00,